Location: Newark
(7.5381°N, 8.4972°W)
Time: 08:43:10
(UTC+00:00)

N. Korean satellite - Visible Passes

Search period start: 26 March 2019 00:00
Search period end: 05 April 2019 00:00
Orbit: 456 x 510 km, 97.2° (Epoch: 25 March)

Date Brightness Start Highest point End Pass type
(mag) Time Alt. Az. Time Alt. Az. Time Alt. Az.
27 Mar 9.2 05:54:00 10° NE 05:57:03 25° E 06:00:09 10° SSE visible
28 Mar 10.3 05:31:35 10° E 05:32:17 10° E 05:32:58 10° ESE visible
31 Mar 9.6 05:48:19 10° NE 05:51:09 21° E 05:54:00 10° SSE visible
03 Apr 8.1 06:06:29 10° NNE 06:10:00 42° E 06:13:33 10° S visible
04 Apr 9.8 05:42:42 10° ENE 05:45:12 17° E 05:47:43 10° SE visible
04 Apr 10.0 19:08:37 10° WSW 19:09:57 12° W 19:11:17 10° WNW visible
